Weather Roundup
Issued by NWS Chicago, IL

Home | Current Version | Previous Version | Graphics & Text | Print | Product List | Glossary On
Versions: 1 2 3 4 5 6 7 8 9 10 11 12 13 14 15 16 17 18 19 20 21 22 23 24 25 26 27 28 29 30 31 32 33 34 35 36 37 38 39 40 41 42 43 44 45 46 47 48 49 50
000
NZUS59 KLOT 061203
HRRLOT

CHICAGO AREA WEATHER ROUNDUP
NATIONAL WEATHER SERVICE CHICAGO/ROMEOVILLE IL
700 AM CDT FRI MAY 06 2016

NOTE: "FAIR" INDICATES FEW OR NO CLOUDS BELOW 12,000 FEET WITH NO
SIGNIFICANT WEATHER AND/OR OBSTRUCTIONS TO VISIBILITY.

* THESE STATIONS ARE NOT UNDER NWS QUALITY CONTROL. THEY ALSO MAY NOT
  REPORT WEATHER SUCH AS PRECIPITATION OR FOG.

ILZ005-006-012>014-019>023-061300-
NORTHEAST ILLINOIS

CITY           SKY/WX    TMP DP  RH WIND       PRES   REMARKS
OHARE          CLOUDY    52  43  71 SW3       29.99R
6HR MIN TEMP:  42; 6HR MAX TEMP:  52;

MIDWAY         CLOUDY    52  43  71 CALM      29.99R
6HR MIN TEMP:  46; 6HR MAX TEMP:  52;

AURORA         CLOUDY    47  43  86 W6        30.01R
6HR MIN TEMP:  40; 6HR MAX TEMP:  47;

LANSING*       SUNNY     44  40  85 CALM      30.01R
WAUKEGAN       CLOUDY    52  42  69 VRB3      29.97S
6HR MIN TEMP:  40; 6HR MAX TEMP:  52; 6HR PCP: TRACE;

DUPAGE AIRPORT CLOUDY    49  42  77 CALM      29.99R
6HR MIN TEMP:  42; 6HR MAX TEMP:  50;

WHEELING       CLOUDY    50  44  80 S3        29.99R
6HR MIN TEMP:  40; 6HR MAX TEMP:  50;

$$

WIZ051-052-058>065-066-070>072-061300-
SOUTHEAST WISCONSIN

CITY           SKY/WX    TMP DP  RH WIND       PRES   REMARKS
MILWAUKEE      CLOUDY    52  42  69 S3        29.96R
6HR MIN TEMP:  45; 6HR MAX TEMP:  53; 6HR PCP: TRACE;

KENOSHA*       CLOUDY    51  43  74 W7        29.97R
RACINE*        LGT RAIN  53  40  61 W5        29.97S
BURLINGTON     CLOUDY    51  41  68 SW6       29.97S
WAUKESHA       PTSUNNY   52  37  58 SW5       29.97R
$$

INZ001>003-010>013-019-020-061300-
NORTHWEST INDIANA

CITY           SKY/WX    TMP DP  RH WIND       PRES   REMARKS
GARY*          PTSUNNY   45  45 100 CALM      30.01R
MICHIGAN CITY* NOT AVBL
RENSSELAER*    NOT AVBL
VALPARAISO     SUNNY     45  40  82 CALM      30.01R
$$

LMZ740>746-061300-
SOUTHERN LAKE MICHIGAN

STATION/POSITION TIME  SKY/WX   TEMP WIND        PRES    VSBY
                                AIR  DIR/SP/G
                 (UTC)          (F)  (DEG/KT/KT) (MB)    (MI)
HARRISON CRIB    1150            54  260/  9/ 10   N/A
BURNHAM HARBOR   1200            54  250/  9/ 12   N/A
CALUMET HARBOR   1100            47  220/  3/  5 1014.6R
BURNS HARBOR     1102            44  190/  6/  7 1015.9S
MICHIGAN CITY    1150            44  160/  3/  3   N/A
$$

ABBREVIATIONS USED IN REMARKS
   TC - TEMPERATURE IN CELSIUS
  WCI - WIND CHILL INDEX
   HX - HEAT INDEX
  VSB - VISIBILITY
$$




USA.gov is the U.S. government's official web portal to all federal, state and local government web resources and services.